x

Ilm3 - 27 Miles Se Of Wrightsville Beach, Nc (41037) Weather Station

7:00 - Thu 17th Apr 2014 All times are EDT. -4 hours from GMT.

  • Wind
    27mph, 31mph gusts
  • Air Temp 57°f
  • Sea Pressure 1027.7mb
  • Ilm3 - 27 Miles Se Of Wrightsville Beach, Nc
  • Ilm3 - 27 Miles Se Of Wrightsville Beach, Nc

More Historic Weather Station data

Upgrade to MSW Pro to gain access to the past 30 days of data for over 8000 Wavebouys and Weather Stations around the globe.

Join Pro

Comparision Forecast

View Surf forecast
   
jeu. 04/17 7:00 27 31 mph 1027.7mb 57f
6:00 25 29 mph 1028.7mb 58f
5:00 27 31 mph 1028.6mb 58f
4:00 25 29 mph 1029.5mb 57f
3:00 25 29 mph 1030.4mb 57f
2:00 27 29 mph 1030.1mb 56f
1:00 20 25 mph 1030.8mb 56f
12:00 25 29 mph 1030.9mb 54f
11:00 25 27 mph 1030.6mb 53f
10:00 25 27 mph 1030.5mb 51f
9:00 25 29 mph 1030mb 51f
8:00 25 31 mph 1029.1mb 49f
7:00 27 31 mph 1028.6mb 48f
6:00 29 34 mph 1028.1mb 47f
5:00 27 34 mph 1027.8mb 49f
4:00 27 29 mph 1027.9mb 48f
3:00 25 29 mph 1028.7mb 49f
2:00 25 29 mph 1029.1mb 48f
1:00 22 27 mph 1029.3mb 48f
12:00 29 34 mph 1029.1mb 48f
mer. 04/16 11:00 29 34 mph 1029.1mb 48f
10:00 27 34 mph 1029.1mb 49f
9:00 27 31 mph 1029mb 49f
8:00 22 27 mph 1028.2mb 49f
7:00 25 29 mph 1027.2mb 49f
6:00 27 31 mph 1027.5mb 50f
5:00 22 27 mph 1026.7mb 50f
4:00 25 31 mph 1026.6mb 48f
3:00 25 29 mph 1026.5mb 47f
2:00 22 27 mph 1027.4mb 45f
1:00 22 29 mph 1027.2mb 45f
12:00 27 31 mph 1027.2mb 44f
11:00 27 31 mph 1026.4mb 41f
10:00 29 31 mph 1025.7mb 42f
9:00 29 34 mph 1024mb 42f
8:00 31 36 mph 1022.8mb 42f
7:00 31 38 mph 1022.3mb 44f
6:00 29 34 mph 1019.9mb 44f
5:00 36 40 mph 1017.6mb 45f
4:00 34 38 mph 1016.6mb 47f
3:00 36 43 mph 1014.5mb 48f
2:00 25 29 mph 1013.9mb 50f
1:00 31 45 mph 1011.1mb 51f
12:00 34 40 mph 1011.2mb 53f
mar. 04/15 11:00 38 45 mph 1007.6mb 55f
10:00 18 22 mph 1005mb 65f
9:00 20 22 mph 1005.5mb 66f
8:00 22 27 mph 1005.3mb 66f
7:00 20 25 mph 1005.4mb 65f
6:00 20 25 mph 1006mb 64f
5:00 25 31 mph 1006mb 64f
4:00 22 25 mph 1007.3mb 64f
3:00 18 25 mph 1008.2mb 65f
1:00 20 22 mph 1008.9mb 65f
12:00 20 22 mph 1009.2mb 65f
11:00 20 27 mph 1009.4mb 64f
10:00 18 22 mph 1009.4mb 64f
9:00 22 29 mph 1009.2mb 67f
8:00 20 25 mph 1009.3mb 67f
7:00 20 25 mph 1009.6mb 67f
6:00 22 27 mph 1009.9mb 66f
5:00 22 27 mph 1010.7mb 67f
4:00 20 22 mph 1010.4mb 66f
3:00 18 22 mph 1011.4mb 66f
2:00 18 20 mph 1011.8mb 66f
1:00 16 20 mph 1012.5mb 66f
lun. 04/14 11:00 16 20 mph 1013.7mb 66f
10:00 11 13 mph 1014.4mb 65f
9:00 18 20 mph 1014.5mb 64f
8:00 13 16 mph 1014.7mb 66f
7:00 11 13 mph 1014.8mb 65f
6:00 11 13 mph 1015.1mb 66f
5:00 9 13 mph 1015.7mb 66f
4:00 11 13 mph 1016.5mb 66f
3:00 9 11 mph 1017.4mb 66f
2:00 9 13 mph 1017.7mb 66f
1:00 11 13 mph 1018.4mb 66f
12:00 9 11 mph 1019.1mb 66f
11:00 9 11 mph 1019.5mb 66f
10:00 9 11 mph 1019.5mb 65f
9:00 9 13 mph 1019.2mb 66f
8:00 9 13 mph 1019.1mb 65f
7:00 11 13 mph 1018.7mb 65f
6:00 9 11 mph 1018.6mb 64f
5:00 9 11 mph 1019.1mb 65f
4:00 7 9 mph 1019.7mb 64f
3:00 11 16 mph 1020.2mb 65f
2:00 13 16 mph 1020.7mb 65f
1:00 13 16 mph 1021mb 65f